Time,TemperatureF,DewpointF,PressureIn,WindDirection,WindDirectionDegrees,WindSpeedMPH,WindSpeedGustMPH,Humidity,HourlyPrecipIn,Conditions,Clouds,dailyrainin,SoftwareType,DateUTC
2013-06-15 00:00:00,83.0,-99.9,29.94,SSE,154,13.0,15.0,-999,-99.99,,,-99.99,,2013-06-15 05:00:00,
2013-06-15 00:34:00,83.0,-99.9,29.94,SSE,154,13.0,15.0,-999,-99.99,,,-99.99,,2013-06-15 05:34:00,
2013-06-15 00:43:00,83.0,-99.9,29.94,SSE,154,13.0,15.0,-999,-99.99,,,-99.99,,2013-06-15 05:43:00,
2013-06-15 00:52:00,83.0,-99.9,29.94,SSE,154,13.0,15.0,-999,-99.99,,,-99.99,,2013-06-15 05:52:00,
2013-06-15 01:00:00,83.0,-99.9,29.93,SSE,157,14.0,17.0,-999,-99.99,,,-99.99,,2013-06-15 06:00:00,
2013-06-15 01:24:00,83.0,-99.9,29.93,SSE,157,14.0,17.0,-999,-99.99,,,-99.99,,2013-06-15 06:24:00,
2013-06-15 01:33:00,83.0,-99.9,29.93,SSE,157,14.0,17.0,-999,-99.99,,,-99.99,,2013-06-15 06:33:00,
2013-06-15 01:43:00,83.0,-99.9,29.93,SSE,157,14.0,17.0,-999,-99.99,,,-99.99,,2013-06-15 06:43:00,
2013-06-15 01:53:00,83.0,-99.9,29.93,SSE,157,14.0,17.0,-999,-99.99,,,-99.99,,2013-06-15 06:53:00,
2013-06-15 02:00:00,82.0,-99.9,29.92,SSE,168,13.0,15.0,-999,-99.99,,,-99.99,,2013-06-15 07:00:00,
2013-06-15 02:33:00,82.0,-99.9,29.92,SSE,168,13.0,15.0,-999,-99.99,,,-99.99,,2013-06-15 07:33:00,
2013-06-15 02:43:00,82.0,-99.9,29.92,SSE,168,13.0,15.0,-999,-99.99,,,-99.99,,2013-06-15 07:43:00,
2013-06-15 02:54:00,82.0,-99.9,29.92,SSE,168,13.0,15.0,-999,-99.99,,,-99.99,,2013-06-15 07:54:00,
2013-06-15 03:00:00,82.0,-99.9,29.91,SSE,163,13.0,15.0,-999,-99.99,,,-99.99,,2013-06-15 08:00:00,
2013-06-15 03:34:00,82.0,-99.9,29.91,SSE,163,13.0,15.0,-999,-99.99,,,-99.99,,2013-06-15 08:34:00,
2013-06-15 03:43:00,82.0,-99.9,29.91,SSE,163,13.0,15.0,-999,-99.99,,,-99.99,,2013-06-15 08:43:00,
2013-06-15 03:53:00,82.0,-99.9,29.91,SSE,163,13.0,15.0,-999,-99.99,,,-99.99,,2013-06-15 08:53:00,
2013-06-15 04:00:00,82.0,-99.9,29.89,South,182,15.0,16.0,-999,-99.99,,,-99.99,,2013-06-15 09:00:00,
2013-06-15 04:33:00,82.0,-99.9,29.89,South,182,15.0,16.0,-999,-99.99,,,-99.99,,2013-06-15 09:33:00,
2013-06-15 04:43:00,82.0,-99.9,29.89,South,182,15.0,16.0,-999,-99.99,,,-99.99,,2013-06-15 09:43:00,
2013-06-15 04:52:00,82.0,-99.9,29.89,South,182,15.0,16.0,-999,-99.99,,,-99.99,,2013-06-15 09:52:00,
2013-06-15 05:00:00,82.0,-99.9,29.91,South,175,15.0,16.0,-999,-99.99,,,-99.99,,2013-06-15 10:00:00,
2013-06-15 05:34:00,82.0,-99.9,29.91,South,175,15.0,16.0,-999,-99.99,,,-99.99,,2013-06-15 10:34:00,
2013-06-15 05:44:00,82.0,-99.9,29.91,South,175,15.0,16.0,-999,-99.99,,,-99.99,,2013-06-15 10:44:00,
2013-06-15 05:53:00,82.0,-99.9,29.91,South,175,15.0,16.0,-999,-99.99,,,-99.99,,2013-06-15 10:53:00,
2013-06-15 06:00:00,82.0,-99.9,29.92,South,169,13.0,16.0,-999,-99.99,,,-99.99,,2013-06-15 11:00:00,
2013-06-15 06:22:00,82.0,-99.9,29.92,South,169,13.0,16.0,-999,-99.99,,,-99.99,,2013-06-15 11:22:00,
2013-06-15 06:33:00,82.0,-99.9,29.92,South,169,13.0,16.0,-999,-99.99,,,-99.99,,2013-06-15 11:33:00,
2013-06-15 06:43:00,82.0,-99.9,29.92,South,169,13.0,16.0,-999,-99.99,,,-99.99,,2013-06-15 11:43:00,
2013-06-15 06:53:00,82.0,-99.9,29.92,South,169,13.0,16.0,-999,-99.99,,,-99.99,,2013-06-15 11:53:00,
2013-06-15 07:00:00,82.0,-99.9,29.93,South,172,13.0,15.0,-999,-99.99,,,-99.99,,2013-06-15 12:00:00,
2013-06-15 07:33:00,82.0,-99.9,29.93,South,172,13.0,15.0,-999,-99.99,,,-99.99,,2013-06-15 12:33:00,
2013-06-15 07:44:00,82.0,-99.9,29.93,South,172,13.0,15.0,-999,-99.99,,,-99.99,,2013-06-15 12:44:00,
2013-06-15 07:53:00,82.0,-99.9,29.93,South,172,13.0,15.0,-999,-99.99,,,-99.99,,2013-06-15 12:53:00,
2013-06-15 08:00:00,82.0,-99.9,29.95,South,177,13.0,15.0,-999,-99.99,,,-99.99,,2013-06-15 13:00:00,
2013-06-15 08:33:00,82.0,-99.9,29.95,South,177,13.0,15.0,-999,-99.99,,,-99.99,,2013-06-15 13:33:00,
2013-06-15 08:44:00,82.0,-99.9,29.95,South,177,13.0,15.0,-999,-99.99,,,-99.99,,2013-06-15 13:44:00,
2013-06-15 08:53:00,82.0,-99.9,29.95,South,177,13.0,15.0,-999,-99.99,,,-99.99,,2013-06-15 13:53:00,
2013-06-15 09:00:00,83.0,-99.9,29.97,South,177,12.0,13.0,-999,-99.99,,,-99.99,,2013-06-15 14:00:00,
2013-06-15 09:34:00,83.0,-99.9,29.97,South,177,12.0,13.0,-999,-99.99,,,-99.99,,2013-06-15 14:34:00,
2013-06-15 09:43:00,83.0,-99.9,29.97,South,177,12.0,13.0,-999,-99.99,,,-99.99,,2013-06-15 14:43:00,
2013-06-15 09:54:00,83.0,-99.9,29.97,South,177,12.0,13.0,-999,-99.99,,,-99.99,,2013-06-15 14:54:00,
2013-06-15 10:00:00,84.0,-99.9,29.98,South,177,11.0,13.0,-999,-99.99,,,-99.99,,2013-06-15 15:00:00,
2013-06-15 10:33:00,84.0,-99.9,29.98,South,177,11.0,13.0,-999,-99.99,,,-99.99,,2013-06-15 15:33:00,
2013-06-15 10:43:00,84.0,-99.9,29.98,South,177,11.0,13.0,-999,-99.99,,,-99.99,,2013-06-15 15:43:00,
2013-06-15 10:53:00,84.0,-99.9,29.98,South,177,11.0,13.0,-999,-99.99,,,-99.99,,2013-06-15 15:53:00,
2013-06-15 11:00:00,85.0,-99.9,29.98,South,172,12.0,15.0,-999,-99.99,,,-99.99,,2013-06-15 16:00:00,
2013-06-15 11:33:00,85.0,-99.9,29.98,South,172,12.0,15.0,-999,-99.99,,,-99.99,,2013-06-15 16:33:00,
2013-06-15 11:43:00,85.0,-99.9,29.98,South,172,12.0,15.0,-999,-99.99,,,-99.99,,2013-06-15 16:43:00,
2013-06-15 11:54:00,85.0,-99.9,29.98,South,172,12.0,15.0,-999,-99.99,,,-99.99,,2013-06-15 16:54:00,
2013-06-15 12:00:00,84.0,-99.9,29.98,SSE,167,12.0,15.0,-999,-99.99,,,-99.99,,2013-06-15 17:00:00,
2013-06-15 12:32:00,84.0,-99.9,29.98,SSE,167,12.0,15.0,-999,-99.99,,,-99.99,,2013-06-15 17:32:00,
2013-06-15 12:43:00,84.0,-99.9,29.98,SSE,167,12.0,15.0,-999,-99.99,,,-99.99,,2013-06-15 17:43:00,
2013-06-15 12:52:00,84.0,-99.9,29.98,SSE,167,12.0,15.0,-999,-99.99,,,-99.99,,2013-06-15 17:52:00,
2013-06-15 13:00:00,84.0,-99.9,29.97,South,174,15.0,17.0,-999,-99.99,,,-99.99,,2013-06-15 18:00:00,
2013-06-15 13:22:00,84.0,-99.9,29.97,South,174,15.0,17.0,-999,-99.99,,,-99.99,,2013-06-15 18:22:00,
2013-06-15 13:33:00,84.0,-99.9,29.97,South,174,15.0,17.0,-999,-99.99,,,-99.99,,2013-06-15 18:33:00,
2013-06-15 13:43:00,84.0,-99.9,29.97,South,174,15.0,17.0,-999,-99.99,,,-99.99,,2013-06-15 18:43:00,
2013-06-15 13:53:00,84.0,-99.9,29.97,South,174,15.0,17.0,-999,-99.99,,,-99.99,,2013-06-15 18:53:00,
2013-06-15 14:00:00,85.0,-99.9,29.96,SSE,158,12.0,14.0,-999,-99.99,,,-99.99,,2013-06-15 19:00:00,
2013-06-15 14:33:00,85.0,-99.9,29.96,SSE,158,12.0,14.0,-999,-99.99,,,-99.99,,2013-06-15 19:33:00,
2013-06-15 14:43:00,85.0,-99.9,29.96,SSE,158,12.0,14.0,-999,-99.99,,,-99.99,,2013-06-15 19:43:00,
2013-06-15 14:53:00,85.0,-99.9,29.96,SSE,158,12.0,14.0,-999,-99.99,,,-99.99,,2013-06-15 19:53:00,
2013-06-15 15:00:00,85.0,-99.9,29.95,SSE,167,11.0,14.0,-999,-99.99,,,-99.99,,2013-06-15 20:00:00,
2013-06-15 15:34:00,85.0,-99.9,29.95,SSE,167,11.0,14.0,-999,-99.99,,,-99.99,,2013-06-15 20:34:00,
2013-06-15 15:43:00,85.0,-99.9,29.95,SSE,167,11.0,14.0,-999,-99.99,,,-99.99,,2013-06-15 20:43:00,
2013-06-15 15:53:00,85.0,-99.9,29.95,SSE,167,11.0,14.0,-999,-99.99,,,-99.99,,2013-06-15 20:53:00,
2013-06-15 16:00:00,85.0,-99.9,29.94,SSE,167,12.0,17.0,-999,-99.99,,,-99.99,,2013-06-15 21:00:00,
2013-06-15 16:34:00,85.0,-99.9,29.94,SSE,167,12.0,17.0,-999,-99.99,,,-99.99,,2013-06-15 21:34:00,
2013-06-15 16:42:00,85.0,-99.9,29.94,SSE,167,12.0,17.0,-999,-99.99,,,-99.99,,2013-06-15 21:42:00,
2013-06-15 16:53:00,85.0,-99.9,29.94,SSE,167,12.0,17.0,-999,-99.99,,,-99.99,,2013-06-15 21:53:00,
2013-06-15 17:00:00,85.0,-99.9,29.93,SSE,157,11.0,13.0,-999,-99.99,,,-99.99,,2013-06-15 22:00:00,
2013-06-15 17:53:00,85.0,-99.9,29.93,SSE,157,11.0,13.0,-999,-99.99,,,-99.99,,2013-06-15 22:53:00,
2013-06-15 18:00:00,84.0,-99.9,29.91,SSE,152,11.0,14.0,-999,-99.99,,,-99.99,,2013-06-15 23:00:00,
2013-06-15 18:33:00,84.0,-99.9,29.91,SSE,152,11.0,14.0,-999,-99.99,,,-99.99,,2013-06-15 23:33:00,
2013-06-15 18:43:00,84.0,-99.9,29.91,SSE,152,11.0,14.0,-999,-99.99,,,-99.99,,2013-06-15 23:43:00,
2013-06-15 18:53:00,84.0,-99.9,29.91,SSE,152,11.0,14.0,-999,-99.99,,,-99.99,,2013-06-15 23:53:00,
2013-06-15 19:00:00,84.0,-99.9,29.91,SSE,155,13.0,14.0,-999,-99.99,,,-99.99,,2013-06-16 00:00:00,
2013-06-15 19:34:00,84.0,-99.9,29.91,SSE,155,13.0,14.0,-999,-99.99,,,-99.99,,2013-06-16 00:34:00,
2013-06-15 19:43:00,84.0,-99.9,29.91,SSE,155,13.0,14.0,-999,-99.99,,,-99.99,,2013-06-16 00:43:00,
2013-06-15 19:53:00,84.0,-99.9,29.91,SSE,155,13.0,14.0,-999,-99.99,,,-99.99,,2013-06-16 00:53:00,
2013-06-15 20:00:00,83.0,-99.9,29.91,SSE,149,14.0,16.0,-999,-99.99,,,-99.99,,2013-06-16 01:00:00,
2013-06-15 20:33:00,83.0,-99.9,29.91,SSE,149,14.0,16.0,-999,-99.99,,,-99.99,,2013-06-16 01:33:00,
2013-06-15 20:43:00,83.0,-99.9,29.91,SSE,149,14.0,16.0,-999,-99.99,,,-99.99,,2013-06-16 01:43:00,
2013-06-15 20:53:00,83.0,-99.9,29.91,SSE,149,14.0,16.0,-999,-99.99,,,-99.99,,2013-06-16 01:53:00,
2013-06-15 21:00:00,83.0,-99.9,29.92,SE,142,16.0,17.0,-999,-99.99,,,-99.99,,2013-06-16 02:00:00,
2013-06-15 21:22:00,83.0,-99.9,29.92,SE,142,16.0,17.0,-999,-99.99,,,-99.99,,2013-06-16 02:22:00,
2013-06-15 21:33:00,83.0,-99.9,29.92,SE,142,16.0,17.0,-999,-99.99,,,-99.99,,2013-06-16 02:33:00,
2013-06-15 21:43:00,83.0,-99.9,29.92,SE,142,16.0,17.0,-999,-99.99,,,-99.99,,2013-06-16 02:43:00,
2013-06-15 21:53:00,83.0,-99.9,29.92,SE,142,16.0,17.0,-999,-99.99,,,-99.99,,2013-06-16 02:53:00,
2013-06-15 22:00:00,83.0,-99.9,29.94,SE,143,17.0,20.0,-999,-99.99,,,-99.99,,2013-06-16 03:00:00,
2013-06-15 22:34:00,83.0,-99.9,29.94,SE,143,17.0,20.0,-999,-99.99,,,-99.99,,2013-06-16 03:34:00,
2013-06-15 22:43:00,83.0,-99.9,29.94,SE,143,17.0,20.0,-999,-99.99,,,-99.99,,2013-06-16 03:43:00,
2013-06-15 22:53:00,83.0,-99.9,29.94,SE,143,17.0,20.0,-999,-99.99,,,-99.99,,2013-06-16 03:53:00,
2013-06-15 23:00:00,83.0,-99.9,29.96,SSE,150,17.0,20.0,-999,-99.99,,,-99.99,,2013-06-16 04:00:00,
2013-06-15 23:34:00,83.0,-99.9,29.96,SSE,150,17.0,20.0,-999,-99.99,,,-99.99,,2013-06-16 04:34:00,
2013-06-15 23:43:00,83.0,-99.9,29.96,SSE,150,17.0,20.0,-999,-99.99,,,-99.99,,2013-06-16 04:43:00,
2013-06-15 23:53:00,83.0,-99.9,29.96,SSE,150,17.0,20.0,-999,-99.99,,,-99.99,,2013-06-16 04:53:00,